User: anonymous   Login
Location: Aragnouet
(42.7874°N, 0.2165°E)
Time: 11:29:18
(UTC+00:00)
Language:

STPSAT 2 (USA 217) - Orbit

View from above orbital plane
View from above orbital plane
View from above satellite
View from above satellite

Ground track
Ground track

The orbit data is extracted from the following two-line orbital elements,

1 37222U 10062A   20183.39317066 0.00000050  00000-0  68275-5 0    05
2 37222  71.9619 306.3790 0016531 233.3281 126.6719 14.78473803    04
Epoch (UTC): 01 July 2020 09:26:09
Eccentricity: 0.0016531
inclination: 71.9619°
perigee height: 622 km
apogee height: 646 km
right ascension of ascending node: 306.3790°
argument of perigee: 233.3281°
revolutions per day: 14.78473803
mean anomaly at epoch: 126.6719°
orbit number at epoch: 0

The dashed part of the orbit path shows where the satellite is in the earth's shadow,  

DLR